{"data":{"norad_id":45532,"epoch":"2026-09-20T06:00:02.000160Z","epoch_age_seconds":35941,"freshness":"FRESH","line1":"1 45532U 20025B   26263.25002315  .00171099  00000+0  61658-3 0  9990","line2":"2 45532  53.0351 201.9294 0004661  66.3712 327.8633 15.87680453  6013","mean_motion":15.87680453,"eccentricity":0.0004661,"inclination_deg":53.0351,"raan_deg":201.9294,"arg_perigee_deg":66.3712,"mean_anomaly_deg":327.8633,"bstar":0.00061658,"rev_number":601,"period_min":90.698351628569,"perigee_km":305.67107789959,"apogee_km":311.90462924809,"semimajor_km":6686.9248535738,"source":"CELESTRAK","updated_at":"2026-09-20T09:00:38.445376Z"}}